Eutelsat II F-2

operational
NORAD ID: 21056 Int'l Des: 1991-003 Owner: EUTEL Country: I-EUT
HEOCIRCULAR

About Eutelsat II F-2

Description loading...

Live Position

Loading 3D Globe...

Upcoming Passes

Altitude History

Altitude vs Time

uPlot chart will show altitude changes over time

Two-Line Element Set

1 21056U 91003B 26048.24527024 -.00000244 00000-0 00000-0 0 9994
2 21056 14.8623 2.5160 0002942 238.5027 323.9568 0.98943287115034
Epoch: Feb 17, 2026 • Age: 42 hours

Current Status

Altitude 36171.0 km
Velocity 3.06 km/s
Sub-Earth Point 14.39°N, 38.45°W
Launch Date Jan 15, 1991
Age 35 years
Type other

Technical Details

Classification Payload
Mass 1878.00 kg
Dry Mass 923.00 kg
Total Mass 1878.00 kg
Length 2.70 m
Diameter 1.30 m
Span 22.40 m
Shape Box + 2 Pan
Manufacturer AESPC/DASAO
Bus Type Spacebus 2000
Phase Status Renamed
Owner/State EUTEL/I-EUT

Large Constellations

Loading constellations...